Preview of NWS' New Version of Forecast
This preview is not operational and should not be used for support decisions.

Regional Weather Roundup (RWR)

Issued by Philadelphia/Mt Holly (PHI)

                            
000
ASUS41 KPHI 181712
RWRPHI

REGIONAL WEATHER ROUNDUP
NATIONAL WEATHER SERVICE MOUNT HOLLY NJ
1200 PM EST FRI JAN 18 2019

NOTE:  "FAIR" INDICATES FEW OR NO CLOUDS BELOW 12,000 FEET WITH NO
SIGNIFICANT WEATHER AND/OR OBSTRUCTIONS TO VISIBILITY.

 * = STATION DOES NOT REPORT PRECIPITATION (E.G. RAIN, SNOW, ETC.) 
        OR FOG.

NJZ015>026-181800-
SOUTHERN NEW JERSEY
  
CITY           SKY/WX    TMP DP  RH WIND       PRES   REMARKS
POMONA         CLOUDY    37  37 100 CALM      30.09F                  
WILDWOOD*      CLOUDY    40  39  97 CALM      30.10F                  
MILLVILLE      CLOUDY    36  34  92 CALM      30.10F                  
WRIGHTSTOWN    CLOUDY    35  34  95 CALM      30.07F                  
MOUNT HOLLY    CLOUDY    33  31  92 CALM      30.11F FOG              
TRENTON        CLOUDY    33  31  92 CALM      30.09F FOG              

$$
NJZ001>014-181800-
NORTHERN NEW JERSEY
  
CITY           SKY/WX    TMP DP  RH WIND       PRES   REMARKS
SUSSEX         CLOUDY    29  26  89 CALM      30.07F                  
ANDOVER*         N/A     31  25  78 CALM      30.07F                  
MORRISTOWN     CLOUDY    32  30  93 CALM      30.10F FOG              
NEWARK         CLOUDY    36  32  85 N3        30.09F                  
TETERBORO      CLOUDY    37  32  82 VRB6      30.09F FOG     WCI  32  
CALDWELL       CLOUDY    33  30  88 CALM      30.10F FOG              
SOMERVILLE     CLOUDY    33  28  81 CALM      30.08F                  
ALLAIRE*       CLOUDY    38  35  89 CALM      30.09F                  
TOMS RIVER*    CLOUDY    39  37  92 CALM      30.09F                  

$$
PAZ043-044-047-054-055-060>062-066>071-181800-
EASTERN PENNSYLVANIA
  
CITY           SKY/WX    TMP DP  RH WIND       PRES   REMARKS
PHILADELPHIA   CLOUDY    35  32  88 CALM      30.11F FOG              
NORTH PHILA    CLOUDY    35  31  85 CALM      30.11F FOG              
BLUE BELL*     CLOUDY    32  32 100 CALM      30.11F                  
DOYLESTOWN     CLOUDY    31  28  89 CALM      30.08F FOG              
QUAKERTOWN*    CLOUDY    30  30 100 CALM      30.08  FOG              
PERKASIE*      CLOUDY    30  30 100 CALM      30.09F FOG              
POTTSTOWN      MIX PCPN  29  29 100 CALM      30.11F FOG              
LANCASTER      CLOUDY    33  30  88 NW3       30.10F FOG              
COATESVILLE    FOG       32  32 100 CALM      30.09F VSB 1/4          
READING        CLOUDY    32  30  92 CALM      30.09F                  
ALLENTOWN      CLOUDY    31  26  82 CALM      30.09F HAZE             
MOUNT POCONO   FLURRIES  28  27  96 SW9       29.99F WCI  19          
HAZLETON       FLURRIES N/A N/A N/A CALM      30.04F                  
LEHIGHTON      CLOUDY    32  28  86 CALM      30.09F FOG              
WILKES BARRE   CLOUDY    30  28  92 W6        30.03F FOG     WCI  24  

$$
DEZALL-MDZ008-012-015-019-020-181800-
DELAWARE AND EASTERN MARYLAND
  
CITY           SKY/WX    TMP DP  RH WIND       PRES   REMARKS
WILMINGTON     CLOUDY    36  33  89 CALM      30.11F FOG              
DOVER          CLOUDY    38  38  99 NW3       30.10F                  
GEORGETOWN     CLOUDY    44  39  82 CALM      30.10F                  
EASTON         PTSUNNY   39  36  87 CALM      30.15F                  
ABERDEEN       CLOUDY    34  34 100 CALM      30.13  FOG              
PATUXENT       FAIR      41  37  86 N7        30.12                   
OCEAN CITY     PTSUNNY   45  38  76 NW6       30.09F                  
WALLOPS ISLAND FAIR      48  36  63 W10       30.10F                  
SALISBURY      FAIR      45  37  73 W8        30.09F                  

$$
PAZ001-021-NYZ056-072-MDZ011-DCZ001-181800-
OTHER NEARBY LOCATIONS
  
CITY           SKY/WX    TMP DP  RH WIND       PRES   REMARKS
HARRISBURG     CLOUDY    31  27  85 CALM      30.10F FOG              
STATE COLLEGE  CLOUDY    32  28  86 SW5       30.03F FOG     WCI  27  
WILLIAMSPORT   CLOUDY    31  26  82 CALM      30.06F                  
BINGHAMTON     CLOUDY    27  24  89 SW7       29.95F WCI  19          
NEW YORK CITY  CLOUDY    37  32  82 MISG      30.10                   
BALTIMORE      CLOUDY    36  33  89 W5        30.10F FOG     WCI  32  
WASHINGTON DC  CLOUDY    37  33  85 NE5       30.13F FOG     WCI  33  

$$